| time (UTC) | temp C | wind direction | speed KPH | gust KPH | rain 1hr cm | rain 24hr cm | rain mn cm | humidity % | barometer mb |
| 20260504004518 | 30 | 325 | 9.7 | 17.7 | 0.00 | 0.00 | 0.00 | 30 | 1007.5 |
| 20260504003029 | 30 | 298 | 8.0 | 17.7 | 0.00 | 0.00 | 0.00 | 31 | 1007.6 |
| 20260504001526 | 30 | 326 | 9.7 | 20.9 | 0.00 | 0.00 | 0.00 | 31 | 1007.7 |
| 20260504000006 | 31 | 323 | 6.4 | 16.1 | 0.00 | 0.00 | 0.00 | 29 | 1007.7 |
| 20260503234524 | 31 | 21 | 4.8 | 19.3 | 0.00 | 0.00 | 0.00 | 29 | 1007.8 |
| 20260503233021 | 31 | 318 | 11.3 | 17.7 | 0.00 | 0.00 | 0.00 | 29 | 1008.0 |
| 20260503231512 | 31 | 275 | 8.0 | 16.1 | 0.00 | 0.00 | 0.00 | 30 | 1008.2 |
| 20260503230011 | 31 | 336 | 8.0 | 20.9 | 0.00 | 0.00 | 0.00 | 30 | 1008.5 |
| 20260503224510 | 31 | 360 | 9.7 | 17.7 | 0.00 | 0.00 | 0.00 | 30 | 1008.8 |
| 20260503223010 | 31 | 269 | 6.4 | 14.5 | 0.00 | 0.00 | 0.00 | 31 | 1009.0 |
| 20260503221529 | 31 | 314 | 4.8 | 17.7 | 0.00 | 0.00 | 0.00 | 33 | 1009.1 |
| 20260503220022 | 31 | 341 | 6.4 | 14.5 | 0.00 | 0.00 | 0.00 | 31 | 1009.3 |
| 20260503214522 | 31 | 295 | 1.6 | 12.9 | 0.00 | 0.00 | 0.00 | 35 | 1009.5 |
| 20260503213023 | 31 | 289 | 3.2 | 16.1 | 0.00 | 0.00 | 0.00 | 31 | 1009.6 |
| 20260503211516 | 31 | 342 | 8.0 | 12.9 | 0.00 | 0.00 | 0.00 | 32 | 1009.8 |
| 20260503210014 | 30 | 323 | 6.4 | 11.3 | 0.00 | 0.00 | 0.00 | 35 | 1010.0 |
| 20260503204509 | 30 | 257 | 6.4 | 16.1 | 0.00 | 0.00 | 0.00 | 34 | 1010.2 |
| 20260503203025 | 30 | 309 | 6.4 | 9.7 | 0.00 | 0.00 | 0.00 | 35 | 1010.4 |
| 20260503201523 | 28 | 290 | 6.4 | 14.5 | 0.00 | 0.00 | 0.00 | 39 | 1010.6 |
| 20260503200024 | 28 | 26 | 6.4 | 12.9 | 0.00 | 0.00 | 0.00 | 40 | 1010.9 |
| 20260503194523 | 27 | 259 | 9.7 | 14.5 | 0.00 | 0.00 | 0.00 | 42 | 1011.1 |
| 20260503193018 | 27 | 316 | 9.7 | 14.5 | 0.00 | 0.00 | 0.00 | 44 | 1011.2 |
| 20260503191514 | 27 | 322 | 6.4 | 14.5 | 0.00 | 0.00 | 0.00 | 46 | 1011.3 |
| 20260503190019 | 26 | 351 | 3.2 | 9.7 | 0.00 | 0.00 | 0.00 | 49 | 1011.5 |
| 20260503184517 | 25 | 264 | 3.2 | 12.9 | 0.00 | 0.00 | 0.00 | 49 | 1011.6 |
| 20260503183026 | 25 | 333 | 3.2 | 11.3 | 0.00 | 0.00 | 0.00 | 47 | 1011.9 |
| 20260503181524 | 24 | 55 | 4.8 | 12.9 | 0.00 | 0.00 | 0.00 | 51 | 1012.0 |
| 20260503180020 | 23 | 306 | 1.6 | 9.7 | 0.00 | 0.00 | 0.00 | 51 | 1012.1 |
| 20260503174519 | 23 | 348 | 3.2 | 9.7 | 0.00 | 0.00 | 0.00 | 54 | 1012.2 |
| 20260503173015 | 22 | 264 | 4.8 | 9.7 | 0.00 | 0.00 | 0.00 | 56 | 1012.3 |
| 20260503171520 | 22 | 258 | 3.2 | 9.7 | 0.00 | 0.00 | 0.00 | 59 | 1012.4 |
| 20260503081516 | 12 | 158 | 0.0 | 0.0 | 0.00 | 0.03 | 0.00 | 88 | 1013.1 |
| 20260503071524 | 13 | 303 | 0.0 | 3.2 | 0.00 | 0.03 | 0.00 | 85 | 1013.1 |
| 20260503054521 | 16 | 9 | 3.2 | 6.4 | 0.00 | 0.03 | 0.03 | 79 | 1013.0 |
| 20260503053019 | 16 | 15 | 0.0 | 3.2 | 0.00 | 0.03 | 0.03 | 77 | 1013.2 |
| 20260503051521 | 16 | 15 | 3.2 | 3.2 | 0.00 | 0.03 | 0.03 | 76 | 1013.2 |
| 20260503050037 | 16 | 132 | 0.0 | 4.8 | 0.00 | 0.03 | 0.03 | 74 | 1013.3 |
| 20260503044525 | 16 | 59 | 1.6 | 3.2 | 0.00 | 0.03 | 0.03 | 74 | 1013.2 |
| 20260503043027 | 17 | 95 | 1.6 | 3.2 | 0.00 | 0.03 | 0.03 | 73 | 1013.3 |
| 20260503041535 | 17 | 130 | 1.6 | 6.4 | 0.00 | 0.03 | 0.03 | 71 | 1013.4 |
| 20260503040022 | 17 | 115 | 4.8 | 11.3 | 0.00 | 0.03 | 0.03 | 71 | 1013.4 |
| 20260503034520 | 18 | 146 | 4.8 | 11.3 | 0.00 | 0.03 | 0.03 | 70 | 1013.1 |
| 20260503033028 | 18 | 167 | 3.2 | 11.3 | 0.00 | 0.03 | 0.03 | 69 | 1013.0 |
| 20260503031531 | 19 | 157 | 8.0 | 16.1 | 0.00 | 0.03 | 0.03 | 67 | 1012.8 |
| 20260503030033 | 20 | 190 | 4.8 | 20.9 | 0.00 | 0.03 | 0.03 | 64 | 1012.5 |
| 20260503024526 | 21 | 177 | 11.3 | 19.3 | 0.00 | 0.03 | 0.03 | 61 | 1012.5 |
| 20260503023027 | 22 | 169 | 12.9 | 24.1 | 0.00 | 0.03 | 0.03 | 60 | 1012.3 |
| 20260503021525 | 22 | 261 | 1.6 | 3.2 | 0.00 | 0.03 | 0.03 | 57 | 1011.8 |
| 20260503020023 | 22 | 360 | 3.2 | 6.4 | 0.00 | 0.03 | 0.03 | 56 | 1011.7 |
| 20260503014520 | 23 | 338 | 1.6 | 6.4 | 0.00 | 0.03 | 0.03 | 56 | 1011.5 |
| 20260503013018 | 23 | 43 | 3.2 | 4.8 | 0.00 | 0.03 | 0.03 | 55 | 1011.5 |
| 20260503011515 | 23 | 284 | 1.6 | 6.4 | 0.00 | 0.03 | 0.03 | 58 | 1011.5 |
| 20260503010012 | 23 | 322 | 3.2 | 9.7 | 0.00 | 0.03 | 0.03 | 55 | 1011.5 |